Starlink 32853

operational
NORAD ID: 62818 Int'l Des: 2025-018 Owner: SPXS Country: US Constellation: starlink
LEOCIRCULAR

Über Starlink 32853

Beschreibung wird geladen...

Live-Position

3D-Globus wird geladen...

Nächste Überflüge

Höhenverlauf

Altitude vs Time

uPlot chart will show altitude changes over time

Zweizeiliger Elementsatz

1 62818U 25018N 26034.47437657 .00028028 00000-0 95523-3 0 9996
2 62818 53.1592 108.2551 0001248 79.8541 280.2600 15.30187691 57947
Epoch: 3. Feb. 2026 • Age: 13 hours

Aktueller Status

Höhe 477.1 km
Geschwindigkeit 7.63 km/s
Subsatellitenpunkt 34.16°N, 113.42°E
Startdatum 24. Jan. 2025
Alter 1 years
Typ internet

Technische Details

Klassifizierung Payload
Masse 730.00 kg
Trockenmasse 700.00 kg
Gesamtmasse 730.00 kg
Länge 0.30 m
Durchmesser 4.10 m
Spannweite 29.00 m
Form Box + pan
Hersteller SPXS
Bus-Typ Starlink V2M
Phasenstatus In Orbit
Besitzer/Staat SPXS/US

Große Konstellationen

Loading constellations...